[keps] orb10087.amsat
Ray Hoad
ray.hoad at mypbmail.com
Sat Mar 27 22:17:22 PDT 2010
SB KEPS @ AMSAT $ORB10087.O
Orbital Elements 10087.OSCAR
HR AMSAT ORBITAL ELEMENTS FOR OSCAR SATELLITES
FROM WA5QGD FORT WORTH,TX March 28, 2010
Send Subscribe/unsubscribe to KEPS at http://www.amsat.org/mailman/listinfo/keps
BID: ORB10087.O
TO ALL RADIO AMATEURS BT
Satellite: AO-07
Catalog number: 07530
Epoch time: 10086.08205895
Element set: 736
Inclination: 101.4066 deg
RA of node: 105.1226 deg
Eccentricity: 0.0012115
Arg of perigee: 074.5547 deg
Mean anomaly: 285.6861 deg
Mean motion: 12.53577990 rev/day
Decay rate: -2.7e-07 rev/day^2
Epoch rev: 61816
Checksum: 294
Satellite: FO-29
Catalog number: 24278
Epoch time: 10086.16531306
Element set: 272
Inclination: 098.5196 deg
RA of node: 286.6158 deg
Eccentricity: 0.0350829
Arg of perigee: 336.7915 deg
Mean anomaly: 021.7708 deg
Mean motion: 13.52948611 rev/day
Decay rate: -5.0e-08 rev/day^2
Epoch rev: 67201
Checksum: 319
Satellite: SO-33
Catalog number: 25509
Epoch time: 10084.80483422
Element set: 677
Inclination: 031.4331 deg
RA of node: 260.0420 deg
Eccentricity: 0.0354686
Arg of perigee: 280.7454 deg
Mean anomaly: 075.3507 deg
Mean motion: 14.28297181 rev/day
Decay rate: 1.61e-06 rev/day^2
Epoch rev: 59612
Checksum: 293
Satellite: RS-22
Catalog number: 27939
Epoch time: 10086.48476258
Element set: 42
Inclination: 097.9052 deg
RA of node: 315.3843 deg
Eccentricity: 0.0012930
Arg of perigee: 321.9099 deg
Mean anomaly: 038.1165 deg
Mean motion: 14.63396299 rev/day
Decay rate: 1.11e-06 rev/day^2
Epoch rev: 34700
Checksum: 309
Satellite: VO-52
Catalog number: 28650
Epoch time: 10085.81453043
Element set: 464
Inclination: 097.7016 deg
RA of node: 142.4277 deg
Eccentricity: 0.0026976
Arg of perigee: 183.3878 deg
Mean anomaly: 176.7114 deg
Mean motion: 14.81707840 rev/day
Decay rate: 1.95e-06 rev/day^2
Epoch rev: 26449
Checksum: 326
Satellite: SO-67
Catalog number: 35870
Epoch time: 10086.77127731
Element set: 575
Inclination: 097.3408 deg
RA of node: 137.9494 deg
Eccentricity: 0.0008803
Arg of perigee: 352.6696 deg
Mean anomaly: 144.1440 deg
Mean motion: 15.22416570 rev/day
Decay rate: 8.93e-06 rev/day^2
Epoch rev: 2907
Checksum: 326
Satellite: HO-68
Catalog number: 36122
Epoch time: 10086.15936550
Element set: 166
Inclination: 100.4779 deg
RA of node: 147.3922 deg
Eccentricity: 0.0007314
Arg of perigee: 160.6807 deg
Mean anomaly: 199.4575 deg
Mean motion: 13.16280109 rev/day
Decay rate: -4.5e-07 rev/day^2
Epoch rev: 1342
Checksum: 291
/EX
SB KEPS @ AMSAT $ORB10087.D
Orbital Elements 10087.MICROS
HR AMSAT ORBITAL ELEMENTS FOR THE MICROSATS
FROM WA5QGD FORT WORTH,TX March 28, 2010
Send Subscribe/unsubscribe to KEPS at http://www.amsat.org/mailman/listinfo/keps
BID: ORB10087.D
TO ALL RADIO AMATEURS BT
Satellite: UO-11
Catalog number: 14781
Epoch time: 10086.20476832
Element set: 206
Inclination: 098.0652 deg
RA of node: 137.6596 deg
Eccentricity: 0.0009614
Arg of perigee: 137.8300 deg
Mean anomaly: 222.3615 deg
Mean motion: 14.79782209 rev/day
Decay rate: 9.6e-07 rev/day^2
Epoch rev: 39968
Checksum: 318
Satellite: AO-16
Catalog number: 20439
Epoch time: 10086.08053775
Element set: 855
Inclination: 098.3227 deg
RA of node: 047.2563 deg
Eccentricity: 0.0011810
Arg of perigee: 053.5090 deg
Mean anomaly: 306.7188 deg
Mean motion: 14.31853810 rev/day
Decay rate: 4.3e-07 rev/day^2
Epoch rev: 5363
Checksum: 286
Satellite: LO-19
Catalog number: 20442
Epoch time: 10086.51069269
Element set: 766
Inclination: 098.2838 deg
RA of node: 053.8031 deg
Eccentricity: 0.0012593
Arg of perigee: 048.1832 deg
Mean anomaly: 312.0418 deg
Mean motion: 14.32086168 rev/day
Decay rate: 1.6e-07 rev/day^2
Epoch rev: 5386
Checksum: 296
Satellite: AO-27
Catalog number: 22825
Epoch time: 10086.59782611
Element set: 489
Inclination: 098.4780 deg
RA of node: 036.6910 deg
Eccentricity: 0.0009105
Arg of perigee: 145.0883 deg
Mean anomaly: 215.0890 deg
Mean motion: 14.29290996 rev/day
Decay rate: 3.0e-08 rev/day^2
Epoch rev: 86039
Checksum: 325
Satellite: IO-26
Catalog number: 22826
Epoch time: 10086.67786137
Element set: 226
Inclination: 098.4714 deg
RA of node: 037.4019 deg
Eccentricity: 0.0009443
Arg of perigee: 139.6180 deg
Mean anomaly: 220.5706 deg
Mean motion: 14.29546199 rev/day
Decay rate: 4.4e-07 rev/day^2
Epoch rev: 86051
Checksum: 314
Satellite: GO-32
Catalog number: 25397
Epoch time: 10086.19500740
Element set: 145
Inclination: 098.3164 deg
RA of node: 098.1565 deg
Eccentricity: 0.0002124
Arg of perigee: 123.6180 deg
Mean anomaly: 236.5199 deg
Mean motion: 14.23174587 rev/day
Decay rate: 1.00e-06 rev/day^2
Epoch rev: 60838
Checksum: 290
Satellite: NO-44
Catalog number: 26931
Epoch time: 10086.48993361
Element set: 419
Inclination: 067.0515 deg
RA of node: 054.4594 deg
Eccentricity: 0.0006341
Arg of perigee: 264.0045 deg
Mean anomaly: 096.0341 deg
Mean motion: 14.29589444 rev/day
Decay rate: 2.12e-06 rev/day^2
Epoch rev: 44307
Checksum: 297
Satellite: SO-50
Catalog number: 27607
Epoch time: 10086.66047934
Element set: 135
Inclination: 064.5568 deg
RA of node: 244.1392 deg
Eccentricity: 0.0036185
Arg of perigee: 115.4413 deg
Mean anomaly: 245.0412 deg
Mean motion: 14.71516258 rev/day
Decay rate: 6.6e-07 rev/day^2
Epoch rev: 39038
Checksum: 295
Satellite: CO-55
Catalog number: 27844
Epoch time: 10086.04726911
Element set: 810
Inclination: 098.7124 deg
RA of node: 096.1968 deg
Eccentricity: 0.0010822
Arg of perigee: 050.0181 deg
Mean anomaly: 310.1940 deg
Mean motion: 14.20693716 rev/day
Decay rate: 7.5e-07 rev/day^2
Epoch rev: 34942
Checksum: 289
Satellite: CO-57
Catalog number: 27848
Epoch time: 10085.99446489
Element set: 761
Inclination: 098.7167 deg
RA of node: 095.2267 deg
Eccentricity: 0.0010743
Arg of perigee: 054.8414 deg
Mean anomaly: 305.3790 deg
Mean motion: 14.20488036 rev/day
Decay rate: 5.7e-07 rev/day^2
Epoch rev: 34937
Checksum: 344
Satellite: AO-51
Catalog number: 28375
Epoch time: 10085.98679074
Element set: 636
Inclination: 098.0595 deg
RA of node: 084.1761 deg
Eccentricity: 0.0084670
Arg of perigee: 347.4952 deg
Mean anomaly: 012.4138 deg
Mean motion: 14.40675736 rev/day
Decay rate: 4.3e-07 rev/day^2
Epoch rev: 30167
Checksum: 329
Satellite: GENESAT1
Catalog number: 29655
Epoch time: 10086.53918609
Element set: 990
Inclination: 040.0189 deg
RA of node: 196.0860 deg
Eccentricity: 0.0005258
Arg of perigee: 081.9611 deg
Mean anomaly: 278.1924 deg
Mean motion: 15.78904842 rev/day
Decay rate: 6.6641e-04 rev/day^2
Epoch rev: 18702
Checksum: 329
Satellite: CP3
Catalog number: 31129
Epoch time: 10086.08764069
Element set: 538
Inclination: 097.9476 deg
RA of node: 130.0168 deg
Eccentricity: 0.0103788
Arg of perigee: 128.2709 deg
Mean anomaly: 232.7964 deg
Mean motion: 14.52228511 rev/day
Decay rate: 1.74e-06 rev/day^2
Epoch rev: 15594
Checksum: 316
Satellite: CO-65
Catalog number: 32785
Epoch time: 10086.11098096
Element set: 638
Inclination: 097.9034 deg
RA of node: 152.1441 deg
Eccentricity: 0.0014885
Arg of perigee: 187.3103 deg
Mean anomaly: 172.7885 deg
Mean motion: 14.81611874 rev/day
Decay rate: 2.21e-06 rev/day^2
Epoch rev: 10333
Checksum: 305
Satellite: KKS-1
Catalog number: 33493
Epoch time: 10086.77160792
Element set: 332
Inclination: 098.0746 deg
RA of node: 205.6193 deg
Eccentricity: 0.0020952
Arg of perigee: 047.4427 deg
Mean anomaly: 312.8558 deg
Mean motion: 14.80912108 rev/day
Decay rate: 6.84e-06 rev/day^2
Epoch rev: 6343
Checksum: 301
Satellite: SOHLA-1
Catalog number: 33496
Epoch time: 10086.79130035
Element set: 61
Inclination: 098.0493 deg
RA of node: 196.9572 deg
Eccentricity: 0.0007708
Arg of perigee: 102.0227 deg
Mean anomaly: 258.1843 deg
Mean motion: 14.69479049 rev/day
Decay rate: -3.7e-07 rev/day^2
Epoch rev: 6292
Checksum: 309
/EX
SB KEPS @ AMSAT $ORB10087.W
Orbital Elements 10087.WEATHER
HR AMSAT ORBITAL ELEMENTS FOR WEATHER SATELLITES
FROM WA5QGD FORT WORTH,TX March 28, 2010
Send Subscribe/unsubscribe to KEPS at http://www.amsat.org/mailman/listinfo/keps
BID: ORB10087.W
TO ALL RADIO AMATEURS BT
Satellite: NOAA-10
Catalog number: 16969
Epoch time: 10086.21017056
Element set: 5
Inclination: 098.6659 deg
RA of node: 115.9191 deg
Eccentricity: 0.0013293
Arg of perigee: 091.4799 deg
Mean anomaly: 268.7904 deg
Mean motion: 14.27410179 rev/day
Decay rate: -6.3e-07 rev/day^2
Epoch rev: 22388
Checksum: 317
Satellite: NOAA-11
Catalog number: 19531
Epoch time: 10086.28191507
Element set: 21
Inclination: 098.7670 deg
RA of node: 176.7018 deg
Eccentricity: 0.0012143
Arg of perigee: 024.8378 deg
Mean anomaly: 335.3348 deg
Mean motion: 14.14919507 rev/day
Decay rate: 8.3e-07 rev/day^2
Epoch rev: 10955
Checksum: 294
Satellite: NOAA-12
Catalog number: 21263
Epoch time: 10086.37613941
Element set: 506
Inclination: 098.7693 deg
RA of node: 099.5361 deg
Eccentricity: 0.0013165
Arg of perigee: 047.3595 deg
Mean anomaly: 312.8693 deg
Mean motion: 14.25623993 rev/day
Decay rate: 4.8e-07 rev/day^2
Epoch rev: 98074
Checksum: 328
Satellite: MET-3/5
Catalog number: 21655
Epoch time: 10086.51365888
Element set: 771
Inclination: 082.5611 deg
RA of node: 006.3373 deg
Eccentricity: 0.0012995
Arg of perigee: 188.0428 deg
Mean anomaly: 172.0533 deg
Mean motion: 13.17022379 rev/day
Decay rate: 5.1e-07 rev/day^2
Epoch rev: 89492
Checksum: 308
Satellite: MET-2/21
Catalog number: 22782
Epoch time: 10086.14322783
Element set: 731
Inclination: 082.5486 deg
RA of node: 317.5440 deg
Eccentricity: 0.0020816
Arg of perigee: 273.6185 deg
Mean anomaly: 086.2599 deg
Mean motion: 13.83642781 rev/day
Decay rate: -4.8e-07 rev/day^2
Epoch rev: 83673
Checksum: 321
Satellite: OKEAN-4
Catalog number: 23317
Epoch time: 10086.73693024
Element set: 189
Inclination: 082.5373 deg
RA of node: 069.8778 deg
Eccentricity: 0.0023026
Arg of perigee: 146.1512 deg
Mean anomaly: 214.1185 deg
Mean motion: 14.82787565 rev/day
Decay rate: 4.75e-06 rev/day^2
Epoch rev: 83438
Checksum: 320
